{"data":{"norad_id":62620,"epoch":"2026-09-22T21:48:47.129184Z","epoch_age_seconds":109550,"freshness":"FRESH","line1":"1 62620U 25009M   26265.90887881  .05964329  24784-5  11543-2 0  9996","line2":"2 62620  97.3642   2.5161 0014509 282.9423  77.0252 16.31505224 94862","mean_motion":16.31505224,"eccentricity":0.0014509,"inclination_deg":97.3642,"raan_deg":2.5161,"arg_perigee_deg":282.9423,"mean_anomaly_deg":77.0252,"bstar":0.0011543,"rev_number":9486,"period_min":88.262052662603,"perigee_km":178.9702436443,"apogee_km":198.02530443161,"semimajor_km":6566.634774038,"source":"CELESTRAK","updated_at":"2026-09-23T09:00:21.530149Z"}}